Flag for Japan Weather past 2 weeks in Nagoya, Japan

Now
84 °F

Partly sunny.


Feels Like: 96 °F
Forecast: 75 / 93 °F
Wind: 3 mph from Southwest

Location: Nagoya Airport

Current Time: Aug 21, 2014 at 10:25:08 AM

Latest Report: Aug 21, 2014 at 10:00 AM


Visibility: N/A

Pressure: 29.92 "Hg

Humidity: 84%

Dew point: 79 °F

Location of NagoyaLocation

Historic Weather in Nagoya — Graph

°F

Nagoya temperature yesterday

Maximum temperature yesterday: 90 °F (at 1:30 PM)
Minimum temperature yesterday: 75 °F (at 4:30 AM)
Average temperature yesterday: 83 °F

Past Weeks' High & Low Weather Summary

 TemperatureHumidityPressure
High91 °F (Aug 15, 1:30 PM)100% (Aug 7, 2:30 AM)29.98 "Hg (Aug 7, 2:30 AM)
Low72 °F (Aug 9, 10:00 AM)59% (Aug 20, 1:30 PM)29.24 "Hg (Aug 10, 1:30 PM)
Average81 °F87%29.75 "Hg
* Reported Aug 6 8:00 AM — Aug 21 8:30 AM, Nagoya, Weather by CustomWeather, © 2014

Note: Actual official high and low records may vary slightly from our data, if they occured in-between our weather recording intervals... More about our weather records

Advertising

Nagoya weather history for previous 24 hours

 ConditionsComfort  
Time TempWeatherWind HumidityBarometerVisibility
8:30 AM
Aug 21
82 °FBroken clouds.2 mph84%29.92 "HgN/A
8:00 AM82 °FBroken clouds.5 mph84%29.95 "HgN/A
7:30 AM82 °FPartly sunny.5 mph89%29.92 "HgN/A
7:00 AM82 °FBroken clouds.3 mph84%29.92 "HgN/A
6:30 AM81 °FPartly sunny.6 mph89%29.92 "HgN/A
6:00 AM81 °FBroken clouds.5 mph89%29.92 "HgN/A
5:30 AM81 °FBroken clouds.3 mph89%29.92 "HgN/A
5:00 AM81 °FPartly cloudy.5 mph84%29.92 "HgN/A
4:30 AM81 °FScattered showers. Partly cloudy.5 mph89%29.92 "HgN/A
4:00 AM81 °FScattered showers. Passing clouds.3 mph89%29.89 "HgN/A
3:30 AM81 °FScattered showers. Passing clouds.7 mph89%29.89 "HgN/A
3:00 AM81 °FPartly cloudy.5 mph89%29.89 "HgN/A
2:30 AM81 °FPartly cloudy.6 mph89%29.89 "HgN/A
2:00 AM81 °FPassing clouds.6 mph89%29.89 "HgN/A
1:30 AM81 °FPassing clouds.5 mph89%29.89 "HgN/A
1:00 AM81 °FPassing clouds.3 mph89%29.89 "HgN/A
12:30 AM81 °FPassing clouds.3 mph89%29.89 "HgN/A
12:00 AM82 °FPassing clouds.5 mph84%29.89 "HgN/A
11:30 PM
Aug 20
81 °FPassing clouds.2 mph89%29.89 "HgN/A
11:00 PM82 °FPassing clouds.5 mph84%29.92 "HgN/A
10:30 PM82 °FPassing clouds.3 mph89%29.92 "HgN/A
10:00 PM84 °FPassing clouds.5 mph89%29.92 "HgN/A
9:30 PM84 °FPassing clouds.6 mph89%29.92 "HgN/A
9:00 PM84 °FPassing clouds.6 mph84%29.92 "HgN/A
8:30 PM84 °FPassing clouds.7 mph84%29.92 "HgN/A
8:00 PM84 °FPassing clouds.9 mph84%29.92 "HgN/A
7:30 PM84 °FPassing clouds.9 mph89%29.89 "HgN/A
7:00 PM84 °FPassing clouds.5 mph89%29.89 "HgN/A
6:30 PM86 °FPartly sunny.7 mph79%29.89 "HgN/A
6:00 PM86 °FPartly sunny.8 mph79%29.89 "HgN/A
5:30 PM86 °FPartly sunny.10 mph79%29.89 "HgN/A
5:00 PM88 °FScattered clouds.13 mph75%29.89 "HgN/A
4:30 PM88 °FScattered clouds.14 mph70%29.89 "HgN/A
4:00 PM90 °FScattered clouds.14 mph63%29.89 "HgN/A
3:30 PM88 °FPartly sunny.15 mph66%29.89 "HgN/A
3:00 PM88 °FScattered clouds.15 mph75%29.89 "HgN/A
2:30 PM90 °FPassing clouds.10 mph71%29.89 "HgN/A
2:00 PM90 °FPassing clouds.10 mph67%29.92 "HgN/A
1:30 PM90 °FPassing clouds.8 mph59%29.92 "HgN/A
1:00 PM88 °FPassing clouds.6 mph66%29.92 "HgN/A
12:30 PM86 °FPassing clouds.6 mph75%29.95 "HgN/A
12:00 PM86 °FPassing clouds.6 mph79%29.95 "HgN/A
11:30 AM84 °FScattered clouds.6 mph79%29.98 "HgN/A
11:00 AM84 °FScattered clouds.5 mph79%29.98 "HgN/A
10:30 AM82 °FScattered clouds.6 mph84%29.98 "HgN/A
10:00 AM82 °FPassing clouds.6 mph84%29.98 "HgN/A
Weather by CustomWeather, © 2014

See weather overviewHow to use our weather pages